Regional Weather Roundup
Issued by NWS Mobile, AL

Home | Current Version | Previous Version | Text Only | Print | Product List | Glossary Off
Versions: 1 2 3 4 5 6 7 8 9 10 11 12 13 14 15 16 17 18 19 20 21 22 23 24 25 26 27 28 29 30 31 32 33 34 35 36 37 38 39 40 41 42 43 44 45 46 47 48 49 50

000
ASUS44 KMOB 291916
RWRMOB
REGIONAL WEATHER ROUNDUP
NATIONAL WEATHER SERVICE MOBILE AL
200 PM CDT SUN MAR 29 2015

ALZ061>064-292000-
COASTAL ALABAMA


CITY           SKY/WX    TMP DP  RH WIND       PRES   REMARKS
MOBILE REG APT PTSUNNY   68  51  54 S13       30.31F
BROOKLEY FIELD MOSUNNY   65  49  56 S14       30.33F
GULF SHORES    MOCLDY    63  50  61 SE15      30.33S

$$

ALZ051>060-292000-
INTERIOR SOUTHWEST AND SOUTH CENTRAL ALABAMA


CITY           SKY/WX    TMP DP  RH WIND       PRES   REMARKS
ANDALUSIA/OPP  CLOUDY    67  35  30 SE6       30.32F
EVERGREEN      SUNNY     66  41  40 SW8       30.31F
FLORALA        CLOUDY    64  36  35 S5        30.33F
GREENVILLE     CLOUDY    64  35  34 SW7       30.30F

$$

FLZ001>006-292000-
WESTERN FLORIDA PANHANDLE


CITY           SKY/WX    TMP DP  RH WIND       PRES   REMARKS
CRESTVIEW      PTSUNNY   69  38  32 VRB5      30.33F
DESTIN         CLOUDY    63  40  42 SE10      30.34F
DUKE FIELD       N/A    N/A N/A N/A S9          N/A
MARY ESTHER    PTSUNNY   62  37  38 SE13      30.33F
MILTON         PTCLDY    68  43  40 S9G18     30.33F
PENSACOLA      MOSUNNY   63  45  51 SE12      30.33F
NAS PENSACOLA  MOSUNNY   64  47  53 SE13G22   30.33F
VALPARAISO     PTSUNNY   63  40  43 S12       30.33F

$$

...MARINE OBSERVATIONS...

STATION/POSITION TIME  SKY/WX   TEMP    WIND        PRES    VSBY
                                AIR SEA DIR/SP/G
                 (UTC)          (F)     (DEG/KT/KT) (MB)    (MI)
PASCAGOULA       1800            63     130/ 14/ 19 1026.5F
PETIT BOIS ISL   1800            65     130/ 14/ 19 1026.9F
E DAUPHIN ISLAND 1900            62     130/ 17/ 19 1026.1F
MIDDLE BAY LIGHT 1800                   130/ 18     1026.1F
USCG MOBILE BAY  1812            63 62  180/  9/ 13 1025.9F
STATE DOCKS      1806            63 62              1026.7F
MEAHER PARK      1800            61     240/  8     1026.8F
FORT MORGAN      1800            63     150/ 17/ 19 1026.3F
12 S ORANGE BCH  1850            62 67  130/ 14/ 17 1026.2F
WVE H/P(F/S)=  3/ 5

PENSACOLA BAY    1800            65 67  140/  3/  8 1028.0F
64 S DAUPHIN ISL 1850            67 72  130/ 14/ 16 1026.2F
WVE H/P(F/S)=  2/ 4

115 SE PENSACOLA 1850            63 75  110/ 10/ 16 1027.4F
WVE H/P(F/S)=  3/ 5

MID GULF/42001   1850            75 79  110/ 12/ 14 1025.1F
WVE H/P(F/S)=  1/ 5

EAST GULF/42003  1850            68 74   70/ 14/ 16 1025.8F
WVE H/P(F/S)=  2/ 3


$$

...NEARBY LOCATIONS

CITY           SKY/WX    TMP DP  RH WIND       PRES   REMARKS
GULFPORT       PTSUNNY   68  56  65 SE16      30.29F
BILOXI         MOSUNNY   68  56  65 SE15      30.29F
PASCAGOULA     CLOUDY    69  54  58 SE16      30.30F
HATTIESBURG    SUNNY     73  54  51 SW14      30.26F
LAUREL         SUNNY     72  39  30 S12       30.26F
MERIDIAN       SUNNY     68  44  42 S12G18    30.24F
MERIDIAN NAS   MOSUNNY   67  41  39 S8        30.24F
MONTGOMERY     CLOUDY    62  29  28 VRB3      30.32F
MAXWELL AFB    CLOUDY    60  31  32 VRB3      30.32F
TROY           PTSUNNY   64  34  32 SE7       30.32F
FORT RUCKER    CLOUDY    64  35  34 CALM      30.32F
DALEVILLE      CLOUDY    62  31  30 SE5       30.32F
DOTHAN         MOSUNNY   64  32  30 CALM      30.36F

$$

...OTHER SURROUNDING LOCATIONS...

CITY           SKY/WX    TMP DP  RH WIND       PRES   REMARKS
BIRMINGHAM     CLOUDY    58  27  30 VRB7      30.31F
TUSCALOOSA     CLOUDY    61  33  35 S10       30.28F
COLUMBUS GA    SUNNY     60  20  21 SW6       30.33F
PANAMA CITY    NOT AVBL
TALLAHASSEE    SUNNY     67  31  26 VRB6      30.33F
BATON ROUGE    PTSUNNY   78  59  51 S14       30.21F
NEW ORLEANS    PTSUNNY   75  60  59 S10       30.25F
SLIDELL        CLOUDY    72  58  61 SE8       30.26F
JACKSON        SUNNY     73  49  42 SW10G21   30.20F
MCCOMB         PTSUNNY   75  56  51 S13G24    30.22F

$$

...SURROUNDING MARINE OBSERVATIONS...

STATION/POSITION TIME  SKY/WX   TEMP    WIND        PRES    VSBY
                                AIR SEA DIR/SP/G
                 (UTC)          (F)     (DEG/KT/KT) (MB)    (MI)
WAVELAND         1800            64 64  140/ 14/ 15 1026.0F
PASCAGOULA RGN A 1800            66     120/  8/ 15 1026.3F
PASCAGOULA PORT  1806               67                N/A
GRAND ISLE       1800            70 66  140/  8/ 14 1025.1F
SOUTHWEST PASS   1900            69     140/ 18/ 19 1025.0F
PILOT STATION E  1800            71 53  140/ 13/ 17 1026.0F
SHELL BEACH      1800            69 67  140/ 16/ 19 1025.4F
PANAMA CITY      1800            61 66  170/  6/  8 1027.3F
APALACHICOLA     1800            57 65  140/  6/ 10 1028.2F
TYNDALL TOWER C  1900            56     100/  9/ 11 1027.7F
S APLCHCLA/42036 1850            60 68   70/ 10/ 12 1027.7F
WVE H/P(F/S)=  3/ 5


$$



USA.gov is the U.S. government's official web portal to all federal, state and local government web resources and services.